| time (UTC) | temp F | wind direction | speed MPH | gust MPH | rain 1hr in | rain 24hr in | rain mn in | humidity % | barometer mb |
| 20260906081512 | 83 | 193 | 0.0 | 3.0 | 0.00 | 0.24 | 0.00 | 86 | 1011.0 |
| 20260906080049 | 83 | 191 | 0.0 | 3.0 | 0.00 | 0.24 | 0.00 | 86 | 1011.1 |
| 20260906074521 | 83 | 212 | 0.0 | 4.0 | 0.00 | 0.24 | 0.00 | 86 | 1011.2 |
| 20260906073057 | 83 | 212 | 0.0 | 5.0 | 0.00 | 0.24 | 0.00 | 86 | 1011.3 |
| 20260906071528 | 83 | 225 | 1.0 | 6.0 | 0.00 | 0.24 | 0.00 | 86 | 1011.3 |
| 20260906070001 | 83 | 191 | 1.0 | 7.0 | 0.00 | 0.24 | 0.00 | 86 | 1011.3 |
| 20260906064539 | 83 | 226 | 1.0 | 6.0 | 0.00 | 0.24 | 0.00 | 86 | 1011.4 |
| 20260906063006 | 83 | 257 | 2.0 | 6.0 | 0.00 | 0.24 | 0.00 | 85 | 1011.3 |
| 20260906061549 | 83 | 186 | 1.0 | 5.0 | 0.00 | 0.24 | 0.00 | 85 | 1011.4 |
| 20260906060015 | 83 | 198 | 0.0 | 6.0 | 0.00 | 0.24 | 0.00 | 85 | 1011.4 |
| 20260906054550 | 83 | 203 | 0.0 | 6.0 | 0.00 | 0.24 | 0.00 | 86 | 1011.4 |
| 20260906053016 | 83 | 191 | 3.0 | 7.0 | 0.00 | 0.24 | 0.00 | 86 | 1011.5 |
| 20260906051608 | 83 | 179 | 2.0 | 7.0 | 0.00 | 0.24 | 0.00 | 86 | 1011.5 |
| 20260906050036 | 83 | 153 | 3.0 | 8.0 | 0.00 | 0.24 | 0.00 | 86 | 1011.4 |
| 20260906044509 | 83 | 167 | 1.0 | 7.0 | 0.00 | 0.24 | 0.24 | 87 | 1011.5 |
| 20260906043052 | 83 | 193 | 2.0 | 6.0 | 0.00 | 0.24 | 0.24 | 87 | 1011.6 |
| 20260906041527 | 83 | 167 | 2.0 | 6.0 | 0.00 | 0.24 | 0.24 | 87 | 1011.6 |
| 20260906040109 | 83 | 152 | 1.0 | 3.0 | 0.00 | 0.24 | 0.24 | 87 | 1011.6 |
| 20260906034541 | 83 | 161 | 3.0 | 6.0 | 0.00 | 0.24 | 0.24 | 87 | 1011.7 |
| 20260906033008 | 83 | 141 | 2.0 | 5.0 | 0.00 | 0.24 | 0.24 | 87 | 1011.7 |
| 20260906031557 | 83 | 102 | 2.0 | 4.0 | 0.00 | 0.24 | 0.24 | 86 | 1011.6 |
| 20260906030033 | 83 | 83 | 2.0 | 4.0 | 0.00 | 0.24 | 0.24 | 87 | 1011.5 |
| 20260906024505 | 83 | 94 | 3.0 | 7.0 | 0.00 | 0.24 | 0.24 | 86 | 1011.3 |
| 20260906023044 | 83 | 117 | 3.0 | 7.0 | 0.00 | 0.24 | 0.24 | 87 | 1011.0 |
| 20260906021512 | 83 | 51 | 1.0 | 5.0 | 0.00 | 0.24 | 0.24 | 87 | 1010.8 |
| 20260906020058 | 83 | 91 | 2.0 | 5.0 | 0.00 | 0.24 | 0.24 | 87 | 1010.8 |
| 20260906014542 | 83 | 86 | 3.0 | 7.0 | 0.00 | 0.24 | 0.24 | 86 | 1010.7 |
| 20260906013109 | 83 | 69 | 3.0 | 8.0 | 0.00 | 0.24 | 0.24 | 86 | 1010.6 |
| 20260906011543 | 84 | 66 | 6.0 | 9.0 | 0.00 | 0.24 | 0.24 | 84 | 1010.5 |
| 20260906010025 | 86 | 134 | 6.0 | 11.0 | 0.00 | 0.24 | 0.24 | 81 | 1010.4 |
| 20260906004613 | 86 | 108 | 4.0 | 8.0 | 0.00 | 0.24 | 0.24 | 79 | 1010.5 |
| 20260906003032 | 87 | 94 | 4.0 | 11.0 | 0.00 | 0.24 | 0.24 | 78 | 1010.3 |
| 20260906001505 | 87 | 121 | 5.0 | 9.0 | 0.00 | 0.24 | 0.24 | 76 | 1010.5 |
| 20260906000058 | 88 | 98 | 5.0 | 12.0 | 0.00 | 0.24 | 0.24 | 73 | 1010.7 |
| 20260905234525 | 89 | 91 | 4.0 | 8.0 | 0.00 | 0.24 | 0.24 | 69 | 1010.9 |
| 20260905233106 | 89 | 96 | 2.0 | 7.0 | 0.00 | 0.24 | 0.24 | 68 | 1010.9 |
| 20260905231540 | 89 | 161 | 3.0 | 9.0 | 0.00 | 0.24 | 0.24 | 68 | 1010.6 |
| 20260905230005 | 89 | 165 | 5.0 | 10.0 | 0.00 | 0.24 | 0.24 | 68 | 1010.5 |
| 20260905224551 | 90 | 118 | 5.0 | 9.0 | 0.00 | 0.24 | 0.24 | 68 | 1010.4 |
| 20260905223025 | 90 | 148 | 3.0 | 8.0 | 0.00 | 0.24 | 0.24 | 68 | 1010.5 |
| 20260905221617 | 90 | 106 | 4.0 | 10.0 | 0.00 | 0.24 | 0.24 | 67 | 1010.3 |
| 20260905220036 | 91 | 117 | 5.0 | 8.0 | 0.00 | 0.24 | 0.24 | 66 | 1010.3 |
| 20260905214504 | 92 | 113 | 1.0 | 6.0 | 0.00 | 0.24 | 0.24 | 66 | 1010.3 |
| 20260905213057 | 92 | 138 | 2.0 | 6.0 | 0.00 | 0.24 | 0.24 | 65 | 1010.4 |
| 20260905211511 | 92 | 104 | 0.0 | 5.0 | 0.00 | 0.24 | 0.24 | 64 | 1010.7 |
| 20260905210059 | 91 | 84 | 3.0 | 6.0 | 0.00 | 0.24 | 0.24 | 66 | 1010.6 |
| 20260905204530 | 92 | 122 | 5.0 | 10.0 | 0.00 | 0.24 | 0.24 | 65 | 1010.7 |
| 20260905203105 | 91 | 134 | 4.0 | 8.0 | 0.00 | 0.24 | 0.24 | 68 | 1010.8 |
| 20260905201532 | 91 | 165 | 5.0 | 11.0 | 0.00 | 0.24 | 0.24 | 69 | 1010.9 |
| 20260905200007 | 91 | 119 | 3.0 | 7.0 | 0.00 | 0.24 | 0.24 | 68 | 1011.1 |
| 20260905194543 | 89 | 219 | 2.0 | 11.0 | 0.00 | 0.24 | 0.24 | 73 | 1011.3 |
| 20260905193013 | 88 | 124 | 7.0 | 13.0 | 0.00 | 0.24 | 0.24 | 72 | 1011.3 |
| 20260905191553 | 86 | 131 | 1.0 | 8.0 | 0.00 | 0.24 | 0.24 | 76 | 1011.8 |
| 20260905190022 | 85 | 112 | 6.0 | 10.0 | 0.00 | 0.24 | 0.24 | 77 | 1011.9 |
| 20260905184602 | 85 | 159 | 4.0 | 12.0 | 0.00 | 0.24 | 0.24 | 79 | 1012.1 |
| 20260905183030 | 85 | 141 | 4.0 | 9.0 | 0.00 | 0.24 | 0.24 | 77 | 1012.3 |
| 20260905181503 | 84 | 75 | 5.0 | 11.0 | 0.01 | 0.24 | 0.24 | 77 | 1012.5 |
| 20260905180045 | 86 | 46 | 3.0 | 7.0 | 0.24 | 0.24 | 0.24 | 82 | 1012.7 |
| 20260905174520 | 84 | 340 | 3.0 | 8.0 | 0.24 | 0.24 | 0.24 | 73 | 1012.9 |
| 20260905173103 | 83 | 316 | 5.0 | 10.0 | 0.24 | 0.24 | 0.24 | 80 | 1013.1 |
| 20260905171534 | 84 | 332 | 10.0 | 13.0 | 0.23 | 0.23 | 0.23 | 78 | 1013.3 |
| 20260905170003 | 91 | 51 | 2.0 | 5.0 | 0.00 | 0.00 | 0.00 | 68 | 1013.2 |
| 20260905164536 | 91 | 118 | 2.0 | 6.0 | 0.00 | 0.00 | 0.00 | 67 | 1013.2 |
| 20260905163009 | 90 | 65 | 3.0 | 6.0 | 0.00 | 0.00 | 0.00 | 72 | 1013.3 |
| 20260905161602 | 89 | 88 | 2.0 | 7.0 | 0.00 | 0.00 | 0.00 | 75 | 1013.4 |
| 20260905160021 | 87 | 31 | 2.0 | 5.0 | 0.00 | 0.00 | 0.00 | 77 | 1013.4 |
| 20260905154618 | 87 | 10 | 1.0 | 4.0 | 0.00 | 0.00 | 0.00 | 76 | 1013.4 |
| 20260905153028 | 87 | 341 | 0.0 | 0.0 | 0.00 | 0.00 | 0.00 | 77 | 1013.4 |
| 20260905151502 | 86 | 341 | 0.0 | 4.0 | 0.00 | 0.00 | 0.00 | 78 | 1013.4 |
| 20260905150044 | 86 | 301 | 1.0 | 2.0 | 0.00 | 0.00 | 0.00 | 80 | 1013.4 |
| 20260905144510 | 86 | 300 | 1.0 | 5.0 | 0.00 | 0.00 | 0.00 | 81 | 1013.4 |
| 20260905143049 | 86 | 278 | 1.0 | 5.0 | 0.00 | 0.00 | 0.00 | 83 | 1013.5 |
| 20260905141520 | 85 | 321 | 0.0 | 3.0 | 0.00 | 0.00 | 0.00 | 86 | 1013.4 |
| 20260905134523 | 84 | 93 | 0.0 | 3.0 | 0.00 | 0.00 | 0.00 | 86 | 1013.2 |
| 20260905133106 | 83 | 94 | 0.0 | 3.0 | 0.00 | 0.00 | 0.00 | 88 | 1013.0 |
| 20260905131536 | 82 | 86 | 0.0 | 1.0 | 0.00 | 0.00 | 0.00 | 90 | 1013.1 |
| 20260905130001 | 81 | 86 | 0.0 | 3.0 | 0.00 | 0.00 | 0.00 | 91 | 1013.1 |
| 20260905124546 | 80 | 158 | 0.0 | 2.0 | 0.00 | 0.00 | 0.00 | 92 | 1013.0 |
| 20260905123019 | 80 | 196 | 0.0 | 0.0 | 0.00 | 0.00 | 0.00 | 92 | 1012.7 |
| 20260905121559 | 80 | 196 | 0.0 | 0.0 | 0.00 | 0.00 | 0.00 | 92 | 1012.6 |
| 20260905120028 | 80 | 196 | 0.0 | 3.0 | 0.00 | 0.00 | 0.00 | 91 | 1012.4 |
| 20260905114606 | 80 | 196 | 0.0 | 0.0 | 0.00 | 0.00 | 0.00 | 91 | 1012.2 |
| 20260905113037 | 80 | 196 | 0.0 | 1.0 | 0.00 | 0.00 | 0.00 | 91 | 1011.9 |
| 20260905111507 | 80 | 196 | 0.0 | 0.0 | 0.00 | 0.00 | 0.00 | 91 | 1011.8 |
| 20260905110057 | 80 | 196 | 0.0 | 0.0 | 0.00 | 0.00 | 0.00 | 91 | 1011.8 |
| 20260905104513 | 80 | 196 | 0.0 | 0.0 | 0.00 | 0.00 | 0.00 | 91 | 1011.7 |
| 20260905103053 | 80 | 196 | 0.0 | 0.0 | 0.00 | 0.00 | 0.00 | 91 | 1011.7 |
| 20260905101528 | 80 | 196 | 0.0 | 0.0 | 0.00 | 0.00 | 0.00 | 90 | 1011.8 |
| 20260905100111 | 80 | 196 | 0.0 | 0.0 | 0.00 | 0.00 | 0.00 | 90 | 1011.7 |
| 20260905094532 | 81 | 196 | 0.0 | 0.0 | 0.00 | 0.00 | 0.00 | 90 | 1011.7 |
| 20260905093010 | 81 | 196 | 0.0 | 0.0 | 0.00 | 0.00 | 0.00 | 89 | 1011.7 |
| 20260905091611 | 81 | 196 | 0.0 | 0.0 | 0.00 | 0.00 | 0.00 | 89 | 1011.7 |
| 20260905090029 | 81 | 196 | 0.0 | 2.0 | 0.00 | 0.00 | 0.00 | 89 | 1011.7 |
| 20260905084500 | 82 | 190 | 1.0 | 4.0 | 0.00 | 0.02 | 0.00 | 89 | 1011.5 |
| 20260905083043 | 82 | 195 | 1.0 | 3.0 | 0.00 | 0.02 | 0.00 | 89 | 1011.3 |